www.pogodaiklimat.ru

Погода и климат >> Архив погоды >> Япония >> Иокогама


ПОГОДА в Иокогаме

  • Прогноз погоды в Иокогаме
  • Монитор погоды в Иокогаме

АРХИВ ПОГОДЫ в Иокогаме

Время (UTC), дата Ветер
(напр.,м/с)
 
Видим.   Явления Облачность Т
(С)
Тd
(С)
f
(%)
Тe
(С)
Тes
(С)
Комфортность P
(гПа)
Po
(гПа)
Тmin
(С)
Tmax
(С)
R
(мм)
R24
(мм)
S
(см)
19 10.06 СЗ 5 20 км в посл. час дождь н/о +15.5 +14.7 95 +14 +14 1005.5 1000.5
20 10.06 С 6 20 км н/о +15.5 +14.7 95 +14 +14 1006.0 1001.0
21 10.06 С 7 20 км {дождь} н/о +15.8 +14.3 91 +14 +14 1006.4 1001.4
22 10.06 С 6 20 км н/о +16.3 +14.0 86 +15 +15 1006.8 1001.8
23 10.06 С 6 20 км н/о +18.2 +14.1 77 +18 +18 1006.5 1001.5
00 11.06 С 5 20 км {дождь} н/о +19.5 +13.5 68 +21 +21 комфорт 1006.6 1001.6 +15.2 6
01 11.06 С 4 20 км н/о +21.2 +13.4 61 +24 +24 комфорт 1006.5 1001.6
02 11.06 С 3 20 км н/о +21.8 +12.9 57 +24 +24 комфорт 1006.5 1001.6
03 11.06 С 5 20 км н/о +22.0 +13.6 59 +25 +25 комфорт 1006.1 1001.2
04 11.06 С 2 20 км н/о +22.6 +13.7 57 +26 +26 жарко 1005.9 1001.0
05 11.06 СВ 3 20 км н/о +22.0 +13.6 59 +25 +25 комфорт 1005.6 1000.7
06 11.06 ЮВ 4 20 км н/о +20.9 +14.6 67 +24 +24 комфорт 1005.4 1000.5
07 11.06 В 4 20 км н/о +20.6 +14.3 67 +23 +23 комфорт 1005.6 1000.7
08 11.06 В 3 20 км н/о +20.5 +13.9 66 +23 +23 комфорт 1005.6 1000.7
09 11.06 В 2 18 км слаб. дождь н/о +19.9 +14.7 72 +23 +23 комфорт 1006.1 1001.1
10 11.06 В 3 20 км в посл. час дождь н/о +19.8 +14.2 70 +22 +22 комфорт 1006.7 1001.7
11 11.06 В 4 20 км н/о +19.0 +13.0 68 +20 +20 1007.3 1002.3
12 11.06 В 2 17 км слаб. дождь н/о +17.8 +13.7 77 +18 +18 1008.2 1003.2 +24.0 0.5
13 11.06 СВ 2 19 км слаб. дождь н/о +16.9 +14.4 85 +17 +17 1008.3 1003.3
14 11.06 В 2 20 км слаб. дождь н/о +16.8 +13.9 83 +17 +17 1008.3 1003.3
15 11.06 В 1 20 км слаб. дождь н/о +16.5 +13.6 83 +17 +17 1008.4 1003.4
16 11.06 С 2 9000 м слаб. дождь н/о +16.2 +15.1 93 +16 +16 1008.0 1003.0
17 11.06 С 1 3800 м слаб. дождь н/о +15.9 +15.3 96 +17 +17 1007.7 1002.7
18 11.06 С 2 4100 м слаб. дождь н/о +15.6 +15.1 97 +15 +15 1007.6 1002.6 5
19 11.06 С 3 6000 м слаб. дождь н/о +15.4 +14.8 96 +15 +15 1008.3 1003.2
20 11.06 С 3 9000 м в посл. час дождь н/о +15.4 +14.6 95 +15 +15 1008.4 1003.3
21 11.06 С 3 20 км {дождь} н/о +15.8 +14.5 92 +15 +15 1008.7 1003.6
22 11.06 С 3 20 км н/о +16.6 +14.8 89 +16 +16 1008.6 1003.6
23 11.06 С 2 20 км н/о +17.8 +14.3 80 +18 +18 1008.9 1003.9
00 12.06 В 3 20 км {дождь} н/о +17.6 +13.3 76 +18 +18 1009.0 1004.0 +15.3 5
01 12.06 В 3 20 км н/о +18.7 +13.6 72 +20 +20 1009.0 1004.0
02 12.06 В 3 20 км н/о +19.3 +13.7 70 +21 +21 комфорт 1008.9 1003.9
03 12.06 В 3 20 км н/о +20.2 +13.9 67 +23 +23 комфорт 1008.5 1003.5
04 12.06 В 3 20 км н/о +21.9 +14.3 62 +25 +25 комфорт 1008.1 1003.2
05 12.06 В 3 20 км н/о +21.2 +13.1 60 +24 +24 комфорт 1007.8 1002.9
06 12.06 В 3 20 км н/о +21.4 +13.3 60 +24 +24 комфорт 1007.6 1002.7
07 12.06 В 3 20 км н/о +21.6 +14.3 63 +25 +25 комфорт 1007.8 1002.9
08 12.06 В 3 20 км н/о +20.5 +14.2 67 +23 +23 комфорт 1008.1 1003.1
09 12.06 В 3 20 км слаб. дождь н/о +19.6 +14.9 74 +22 +22 комфорт 1008.8 1003.8
10 12.06 ЮВ 3 15 км слаб. дождь н/о +18.9 +15.2 79 +20 +20 1009.4 1004.4
11 12.06 ЮВ 3 15 км слаб. дождь н/о +17.8 +14.7 82 +18 +18 1010.2 1005.2
12 12.06 В 3 20 км в посл. час дождь н/о +17.6 +13.7 78 +18 +18 1010.9 1005.9 +22.7 0.0
13 12.06 В 3 20 км н/о +17.2 +13.5 79 +17 +17 1011.3 1006.3
14 12.06 ЮВ 2 20 км н/о +16.8 +13.2 79 +17 +17 1011.1 1006.1
15 12.06 В 3 20 км н/о +16.7 +13.1 79 +17 +17 1011.1 1006.1
16 12.06 В 2 20 км н/о +16.3 +13.2 82 +16 +16 1011.5 1006.4
17 12.06 ЮВ 1 20 км н/о +15.9 +13.6 86 +17 +17 1011.5 1006.4
18 12.06 С 2 20 км н/о +16.1 +13.8 86 +16 +16 1011.2 1006.1
19 12.06 С 2 20 км н/о +16.2 +13.7 85 +17 +17 1011.6 1006.5
20 12.06 С 2 15 км н/о +16.2 +13.9 86 +17 +17 1011.9 1006.8
21 12.06 В 2 14 км н/о +17.1 +14.2 83 +18 +18 1012.4 1007.4
22 12.06 В 2 20 км н/о +17.9 +14.0 78 +19 +19 1013.1 1008.1
23 12.06 СВ 1 17 км н/о +19.5 +13.9 70 +22 +22 комфорт 1013.1 1008.1
00 13.06 В 2 20 км н/о +21.2 +14.1 64 +24 +24 комфорт 1013.4 1008.4 +15.6
01 13.06 ЮВ 3 16 км н/о +23.7 +16.5 64 +27 +27 жарко 1013.1 1008.2
02 13.06 Ю 2 20 км н/о +24.3 +15.8 59 +27 +27 жарко 1013.0 1008.1
03 13.06 Ю 4 20 км н/о +24.5 +14.9 55 +27 +27 жарко 1012.8 1007.9
04 13.06 ЮЗ 4 20 км н/о +25.5 +14.6 51 +28 +28 жарко 1012.3 1007.4
05 13.06 Ю 5 20 км н/о +25.7 +14.5 50 +28 +28 жарко 1012.0 1007.1
07 13.06 ЮЗ 5 20 км н/о +25.1 +16.3 58 +28 +28 жарко 1012.0 1007.1
08 13.06 ЮЗ 6 20 км н/о +23.8 +16.1 62 +27 +27 жарко 1012.4 1007.5
09 13.06 Ю 5 20 км н/о +22.9 +15.0 61 +27 +27 душно 1012.8 1007.9
10 13.06 Ю 6 20 км н/о +21.8 +14.7 64 +25 +25 комфорт 1013.4 1008.4
11 13.06 Ю 5 20 км н/о +21.4 +15.7 70 +25 +25 комфорт 1013.8 1008.8
12 13.06 Ю 5 20 км н/о +21.2 +16.0 72 +25 +25 комфорт 1014.3 1009.3 +26.2
13 13.06 Ю 5 20 км н/о +21.0 +16.0 73 +25 +25 комфорт 1014.4 1009.4
14 13.06 Ю 4 20 км н/о +20.8 +16.2 75 +24 +24 комфорт 1014.3 1009.3
15 13.06 Ю 3 20 км н/о +20.7 +16.3 76 +24 +24 комфорт 1014.3 1009.3
16 13.06 Ю 3 20 км н/о +20.3 +16.4 78 +24 +24 комфорт 1014.2 1009.2
17 13.06 Ю 2 20 км н/о +19.5 +16.4 82 +22 +22 комфорт 1014.3 1009.3
18 13.06 Ю 2 20 км н/о +19.5 +16.6 83 +22 +22 комфорт 1014.1 1009.1
19 13.06 Ю 2 20 км н/о +19.0 +17.3 90 +21 +21 комфорт 1014.2 1009.2
20 13.06 ЮЗ 2 20 км н/о +19.0 +17.5 91 +21 +21 комфорт 1014.8 1009.8
21 13.06 З 1 20 км н/о +19.9 +17.3 85 +24 +24 комфорт 1014.7 1009.7
22 13.06 Ю 2 20 км в посл. час дождь н/о +22.2 +18.2 78 +27 +27 душно 1014.7 1009.7
23 13.06 Ю 5 20 км н/о +23.0 +16.8 68 +28 +28 душно 1014.4 1009.5
00 14.06 ЮВ 6 20 км {дождь} н/о +24.0 +17.0 65 +28 +28 душно 1014.3 1009.4 +18.7 0.0
01 14.06 ЮВ 6 20 км н/о +24.8 +16.5 60 +28 +28 жарко 1014.3 1009.4
02 14.06 Ю 5 20 км н/о +25.5 +16.4 57 +29 +29 душно 1014.3 1009.4
03 14.06 Ю 4 20 км н/о +25.2 +16.1 57 +29 +29 душно 1013.6 1008.7
04 14.06 ЮВ 6 20 км н/о +25.4 +13.3 47 +27 +27 жарко 1013.3 1008.4
05 14.06 Ю 6 20 км н/о +24.9 +15.0 54 +28 +28 жарко 1013.0 1008.1
06 14.06 Ю 5 20 км н/о +24.1 +15.1 57 +27 +27 жарко 1013.1 1008.2
07 14.06 Ю 5 20 км н/о +23.3 +15.6 62 +28 +28 душно 1012.7 1007.8
08 14.06 ЮВ 5 20 км н/о +22.6 +15.9 66 +27 +27 душно 1012.5 1007.6
09 14.06 Ю 4 20 км в посл. час дождь н/о +22.0 +15.4 66 +26 +26 душно 1012.8 1007.8
10 14.06 Ю 6 20 км н/о +21.5 +15.8 70 +25 +25 комфорт 1012.9 1007.9
11 14.06 ЮВ 4 20 км н/о +21.4 +15.7 70 +25 +25 комфорт 1013.2 1008.2
12 14.06 ЮВ 2 20 км {дождь} н/о +21.2 +16.2 73 +25 +25 комфорт 1013.2 1008.2 +26.1 0.0
13 14.06 ЮВ 2 20 км слаб. дождь н/о +20.8 +16.6 77 +25 +25 комфорт 1012.7 1007.7
14 14.06 ЮВ 2 20 км слаб. дождь н/о +20.6 +16.6 78 +25 +25 комфорт 1011.5 1006.5
15 14.06 В 2 14 км слаб. дождь н/о +20.2 +17.0 82 +24 +24 комфорт 1010.8 1005.8
16 14.06 В 3 8000 м слаб. дождь н/о +19.7 +17.5 87 +23 +23 комфорт 1010.3 1005.3
17 14.06 В 2 9000 м слаб. дождь н/о +19.5 +17.8 90 +23 +23 комфорт 1009.5 1004.5
18 14.06 ЮВ 4 3400 м слаб. дождь н/о +18.3 +16.5 89 +19 +19 1009.3 1004.3 3
19 14.06 СВ 2 4800 м слаб. дождь н/о +17.2 +15.9 92 +18 +18 1008.3 1003.3
20 14.06 С 2 5000 м слаб. дождь н/о +17.7 +16.6 93 +18 +18 1007.9 1002.9
21 14.06 СВ 3 4700 м дождь н/о +16.7 +14.9 89 +17 +17 1008.1 1003.1
22 14.06 СВ 2 1800 м дождь н/о +16.5 +15.9 96 +17 +17 1008.2 1003.2
23 14.06 С 4 2100 м слаб. дождь н/о +16.5 +16.0 97 +16 +16 1006.7 1001.7
00 15.06 С 3 3000 м слаб. дождь н/о +17.0 +16.5 97 +17 +17 1005.6 1000.6 +16.3 21
01 15.06 С 3 2100 м дождь н/о +17.1 +16.8 98 +17 +17 1004.5 999.5
02 15.06 С 4 2400 м слаб. дождь н/о +17.2 +16.9 98 +17 +17 1003.2 998.2
03 15.06 С 7 2800 м дождь н/о +17.1 +16.8 98 +16 +16 1001.9 996.9
04 15.06 С 7 6000 м дождь н/о +17.1 +16.8 98 +16 +16 999.5 994.5
05 15.06 С 6 6000 м дождь н/о +16.8 +16.5 98 +16 +16 998.3 993.3
06 15.06 СЗ 5 8000 м слаб. дождь н/о +17.2 +16.9 98 +17 +17 997.5 992.5 22
07 15.06 С 5 11 км слаб. дождь н/о +17.2 +16.9 98 +16 +16 996.3 991.3
08 15.06 С 6 8000 м в посл. час дождь н/о +17.0 +16.7 98 +16 +16 994.8 989.8
09 15.06 СЗ 4 8000 м слаб. дождь н/о +16.8 +16.5 98 +16 +16 995.2 990.2
10 15.06 СЗ 5 20 км слаб. дождь н/о +16.7 +16.2 97 +16 +16 994.4 989.4
11 15.06 С 3 20 км в посл. час дождь н/о +16.8 +16.3 97 +17 +17 994.1 989.1
12 15.06 С 3 20 км {дождь} н/о +17.0 +16.4 96 +17 +17 993.9 988.9 +17.5 26
13 15.06 С 2 20 км н/о +17.0 +16.2 95 +18 +18 993.0 988.1
14 15.06 ЮВ 2 12 км н/о +17.1 +16.5 96 +18 +18 992.1 987.2
15 15.06 В 2 2700 м слаб. дождь н/о +17.5 +17.0 97 +18 +18 990.6 985.7
16 15.06 С 2 1800 м слаб. дождь н/о +17.6 +17.5 99 +18 +18 989.3 984.4
17 15.06 СЗ 2 2200 м слаб. дождь н/о +17.3 +17.2 99 +18 +18 988.5 983.6
18 15.06 З 1 1500 м в посл. час дождь н/о +17.4 +17.3 99 +18 +18 987.6 982.7 8
19 15.06 ЮЗ 2 2200 м дымка н/о +17.3 +17.2 99 +18 +18 987.3 982.4
20 15.06 ЮЗ 7 20 км н/о +19.2 +18.0 93 +21 +21 комфорт 987.1 982.2
21 15.06 ЮЗ 7 20 км н/о +19.8 +16.8 83 +22 +22 комфорт 988.3 983.4
22 15.06 ЮЗ 8 20 км н/о +21.7 +16.4 72 +26 +26 душно 987.9 983.1
23 15.06 ЮЗ 8 20 км н/о +23.1 +15.9 64 +28 +28 душно 988.4 983.6
00 16.06 ЮЗ 9 20 км н/о +24.3 +15.8 59 +27 +27 жарко 988.6 983.8 +16.8 8
01 16.06 ЮЗ 9 20 км н/о +25.3 +15.3 54 +28 +28 жарко 989.2 984.4
02 16.06 ЮЗ 9 20 км н/о +26.1 +15.8 53 +29 +29 жарко 989.7 984.9
03 16.06 ЮЗ 7 20 км н/о +27.6 +15.9 49 +31 +31 душно 989.6 984.9
04 16.06 ЮЗ 7 20 км н/о +28.5 +16.1 47 +32 +32 душно 990.0 985.3
05 16.06 ЮЗ 9 20 км н/о +28.5 +15.4 45 +31 +31 душно 990.2 985.5
06 16.06 ЮЗ 8 20 км н/о +28.7 +14.5 42 +31 +31 жарко 990.8 986.1
07 16.06 ЮЗ 7 20 км н/о +28.4 +14.6 43 +31 +31 душно 991.3 986.6
08 16.06 ЮЗ 7 20 км н/о +27.8 +13.4 41 +30 +30 жарко 992.1 987.4
09 16.06 ЮЗ 7 20 км н/о +26.6 +13.4 44 +29 +29 жарко 993.6 988.8
10 16.06 ЮЗ 6 20 км н/о +25.0 +13.2 48 +27 +27 жарко 995.0 990.2
11 16.06 ЮЗ 3 20 км н/о +23.8 +12.8 50 +26 +26 жарко 996.7 991.9
12 16.06 ЮЗ 2 20 км н/о +23.5 +12.8 51 +26 +26 жарко 998.3 993.4 +28.9
13 16.06 СВ 1 20 км н/о +22.7 +11.8 50 +25 +25 комфорт 999.3 994.4
14 16.06 СВ 1 20 км н/о +22.0 +11.4 51 +24 +24 комфорт 1000.2 995.3
15 16.06 С 2 20 км н/о +21.2 +11.5 54 +23 +23 комфорт 1000.8 995.9
16 16.06 С 2 20 км н/о +20.5 +11.7 57 +23 +23 комфорт 1001.0 996.1
17 16.06 С 3 20 км н/о +20.3 +11.3 56 +22 +22 комфорт 1001.6 996.7
18 16.06 СЗ 2 20 км н/о +21.0 +11.1 53 +24 +24 комфорт 1002.8 997.9
19 16.06 СВ 2 20 км н/о +19.9 +11.7 59 +22 +22 комфорт 1003.7 998.8
20 16.06 С 3 20 км н/о +19.5 +11.8 61 +21 +21 комфорт 1005.1 1000.1
21 16.06 С 3 20 км н/о +20.8 +11.4 55 +23 +23 комфорт 1006.1 1001.2
22 16.06 С 4 20 км н/о +21.4 +11.2 52 +23 +23 комфорт 1006.8 1001.9
23 16.06 С 5 20 км н/о +24.0 +10.7 43 +25 +25 комфорт 1007.8 1002.9
00 17.06 С 8 20 км н/о +25.2 +9.9 38 +26 +26 жарко 1008.0 1003.1 +18.9
01 17.06 С 10 20 км н/о +25.5 +9.4 36 +26 +26 жарко 1007.8 1002.9
02 17.06 С 6 20 км н/о +26.7 +9.6 34 +27 +27 жарко 1008.2 1003.4
03 17.06 С 5 20 км н/о +27.1 +9.9 34 +28 +28 жарко 1008.6 1003.8
04 17.06 С 4 20 км н/о +28.1 +10.8 34 +29 +29 жарко 1008.6 1003.8
05 17.06 С 3 20 км н/о +27.2 +11.7 38 +28 +28 жарко 1008.6 1003.8
06 17.06 ЮВ 3 20 км н/о +28.1 +13.3 40 +30 +30 жарко 1008.8 1004.0
07 17.06 ЮВ 5 20 км н/о +26.4 +11.0 38 +27 +27 жарко 1009.1 1004.2
08 17.06 Ю 3 20 км н/о +25.7 +12.6 44 +27 +27 жарко 1009.1 1004.2
09 17.06 ЮЗ 3 20 км н/о +25.1 +16.8 60 +29 +29 душно 1010.0 1005.1
10 17.06 ЮЗ 5 20 км н/о +23.3 +16.8 67 +28 +28 душно 1010.6 1005.7
11 17.06 Ю 3 20 км н/о +22.9 +14.7 60 +27 +27 душно 1011.8 1006.9
12 17.06 Ю 4 20 км н/о +22.3 +15.9 67 +26 +26 жарко 1012.6 1007.7 +28.8
13 17.06 Ю 2 20 км н/о +21.5 +17.3 77 +26 +26 душно 1013.0 1008.0
14 17.06 Ю 1 20 км н/о +21.3 +17.9 81 +25 +25 комфорт 1013.0 1008.0
15 17.06 ЮВ 2 20 км н/о +20.4 +15.6 74 +24 +24 комфорт 1013.4 1008.4
16 17.06 В 2 20 км н/о +21.0 +15.3 70 +25 +25 комфорт 1013.3 1008.3
18 17.06 ЮВ 2 20 км н/о +20.8 +16.0 74 +25 +25 комфорт 1013.4 1008.4

 

Местоположение метеостанции Иокогама (Япония): широта 35.43 долгота 139.65 высота над уровнем моря 42 м.

В архиве по умолчанию представлена погода в Иокогаме за последнюю неделю. Архивные данные за месяц целиком и за предыдущие месяцы, начиная с января 2011 года, Вы можете получить, выбрав интересующий диапазон дат из раскрывающегося списка и нажав кнопку "Ввод!".


*Определитесь, кто Вы:
робот инопланетянин человек

Внимание! Время в таблицах - всемирное. Для получения местного времени необходимо прибавить поправку, которая равна 9 ч.

Смотрите также архив погоды в соседних городах и на ближайших метеорологических станциях:

Погода в Токио (Япония) (30 км)
Погода в Тибе (Япония) (45 км)
Погода в Татеяме (Япония) (54 км)
Погода в Аджиро (Япония) (65 км)
Погода в Кацууре (Япония) (68 км)
Погода в Мисиме (Япония) (74 км)
Погода на Осиме (Япония) (80 км)
Погода на Озере Кавагучи (Япония) (81 км)
Погода в Чичибу (Япония) (81 км)
Погода на Фудзияме (Япония) (84 км)

Пояснения к столбцам:

Ветер - указаны скорость ветра в м/с - средняя за 10 мин, порывы в срок и между сроками (в фигурных скобках) и направление, откуда дует ветер: С - северный, СВ - северо-восточный, В - восточный, ЮВ - юго-восточный, Ю - южный, ЮЗ - юго-западный, З - западный, СЗ - северо-западный.
Видимость - горизонтальная дальность видимости в метрах или километрах. При видимости от 1 до 10 км при отсутствии осадков обычно наблюдается дымка, при ухудшении видимости до 1 км и менее - туман. В сухую погоду видимость может ухудшаться дымом, пылью или мглою.
Явления - указаны атмосферные явления, наблюдавшиеся в срок или в последний час перед сроком; фигурными скобками обозначены явления, наблюдавшиеся между сроками (за 1-3 часа до срока); квадратными скобками обозначены град или гололедные отложения с указанием их диаметра в мм.
Облачность - указаны через наклонную черту общая и нижняя облачность в баллах и высота нижней границы облаков в метрах; квадратными скобками обозначены формы облаков: Ci - перистые, Cs - перисто-слоистые, Cc - перисто-кучевые, Ac - высококучевые, As - высокослоистые, Sc - слоисто-кучевые, Ns - слоисто-дождевые, Cu - кучевые, Cb - кучево-дождевые. Подробнее классификацию облаков см. в Атласе облаков (PDF).
T - Температура воздуха - температура, измеренная на высоте 2 м над землей.
Td - Температура точки росы - температура, при понижении до которой содержащийся в воздухе водяной пар достигнет насыщения.
f - Относительная влажность воздуха - влажноcть воздуха, измеренная на высоте 2 м над землей.
Te - Эффективная температура - температура, которую ощущает одетый по сезону человек в тени. Характеристика душности погоды. При расчете учитывается влияние влажности воздуха и скорости ветра на теплоощущения человека.
Tes - Эффективная температура на солнце - температура, которую ощущает человек, с поправкой на солнечный нагрев. Характеристика знойности погоды. Зависит от высоты солнца над горизонтом, облачности и скорости ветра. Ночью, в пасмурную погоду, а также при ветре 12 м/с и более поправка равна нулю.
P - Атмосферное давление - приведенное к уровню моря атмосферное давление.
Po - Атмосферное давление - измеренное на уровне метеостанции атмосферное давление.
Tmin - Минимальная температура - минимум температуры воздуха на высоте 2 м над землей.
Tmax - Максимальная температура - максимум температуры воздуха на высоте 2 м над землей.
R - Количество осадков - Количество выпавших осадков за период времени, мм. При наведении курсора мыши на число - период времени, за который выпало указанное количество осадков.
R24 - Количество осадков - Количество выпавших осадков за 24 часа, мм.
S - Снежный покров - Высота снежного покрова, см. При наведении курсора мыши на число - состояние снежного покрова и степень покрытия местности в баллах.